FW7492 Weather Reports


time (UTC)temp
C
wind
direction
speed
KPH
gust
KPH
rain 1hr
cm
rain 24hr
cm
rain mn
cm
humidity
%
barometer
mb
20260507144614 10 0 4.8 11.3 0.00 0.00 0.00 48 1008.6
20260507143059 10 107 1.6 25.7 0.00 0.00 0.00 47 1008.8
20260507141615 9 131 11.3 27.4 0.00 0.00 0.00 44 1008.7
20260507140053 9 165 11.3 24.1 0.00 0.00 0.00 45 1008.9
20260507134556 8 89 8.0 19.3 0.00 0.00 0.00 47 1008.7
20260507133058 8 244 3.2 14.5 0.00 0.00 0.00 48 1008.9
20260507131556 8 160 0.0 8.0 0.00 0.00 0.00 52 1008.8
20260507130108 8 0 0.0 6.4 0.00 0.00 0.00 59 1008.6
20260507124608 8 0 0.0 8.0 0.00 0.00 0.00 60 1008.7
20260507123059 7 113 0.0 4.8 0.00 0.00 0.00 62 1008.7
20260507121556 7 0 0.0 11.3 0.00 0.00 0.00 64 1008.8
20260507120053 7 91 1.6 11.3 0.00 0.00 0.00 66 1008.8
20260507114558 6 0 0.0 4.8 0.00 0.00 0.00 67 1008.7
20260507113056 6 0 0.0 3.2 0.00 0.00 0.00 69 1008.8
20260507111555 6 0 0.0 8.0 0.00 0.00 0.00 70 1008.7
20260507110054 6 0 1.6 12.9 0.00 0.00 0.00 70 1008.5
20260507104556 6 91 3.2 11.3 0.00 0.00 0.00 71 1008.3
20260507103104 6 0 1.6 11.3 0.00 0.00 0.00 72 1008.3
20260507101554 7 93 3.2 14.5 0.00 0.00 0.00 72 1008.3
20260507100054 7 111 3.2 12.9 0.00 0.00 0.00 73 1008.2
20260507094554 7 0 8.0 14.5 0.00 0.00 0.00 72 1008.3
20260507093101 7 0 6.4 11.3 0.00 0.00 0.00 72 1008.2
20260507091558 7 83 3.2 9.7 0.00 0.00 0.00 73 1008.0
20260507090053 7 111 0.0 6.4 0.00 0.00 0.00 73 1008.0
20260507084554 8 134 1.6 12.9 0.00 0.03 0.00 74 1007.8
20260507083053 8 99 3.2 8.0 0.00 0.03 0.00 74 1007.8
20260507081557 8 107 1.6 6.4 0.00 0.03 0.00 73 1007.6
20260507074556 8 0 1.6 8.0 0.00 0.10 0.00 73 1007.6
20260507073105 8 0 0.0 6.4 0.00 0.10 0.00 74 1007.5
20260507071558 8 0 0.0 6.4 0.00 0.10 0.00 74 1007.4
20260507070100 8 0 1.6 8.0 0.00 0.10 0.00 73 1007.5
20260507064554 9 100 0.0 9.7 0.00 0.38 0.00 73 1007.6
20260507063057 9 177 3.2 9.7 0.00 0.38 0.00 71 1007.6
20260507061604 9 98 6.4 9.7 0.00 0.38 0.00 72 1007.6
20260507060058 9 101 3.2 8.0 0.00 0.38 0.00 72 1007.5
20260507054551 10 97 4.8 11.3 0.00 0.69 0.00 71 1007.7
20260507053057 10 113 8.0 11.3 0.00 0.69 0.00 71 1007.9
20260507051555 10 0 0.0 8.0 0.00 0.69 0.00 72 1007.6
20260507050056 10 103 4.8 11.3 0.00 0.69 0.00 70 1007.7
20260507044601 10 0 1.6 6.4 0.00 0.84 0.00 68 1007.7
20260507043057 11 0 3.2 6.4 0.00 0.84 0.00 68 1007.8
20260507041559 11 110 4.8 6.4 0.00 0.84 0.00 66 1007.8
20260507040054 11 100 1.6 6.4 0.00 0.84 0.00 66 1007.5
20260507034606 11 0 0.0 1.6 0.00 0.84 0.84 64 1007.6
20260507033059 11 108 1.6 4.8 0.00 0.84 0.84 59 1007.8
20260507031555 11 117 0.0 4.8 0.00 0.84 0.84 59 1007.8
20260507030101 11 0 0.0 1.6 0.00 0.84 0.84 59 1007.8
20260507024558 12 0 0.0 1.6 0.00 0.86 0.84 60 1007.8
20260507023055 12 0 0.0 1.6 0.00 0.86 0.84 59 1007.7
20260507021557 12 0 0.0 1.6 0.00 0.86 0.84 57 1007.6
20260507020055 12 0 0.0 0.0 0.00 0.86 0.84 55 1007.6
20260507014556 12 0 0.0 1.6 0.00 1.07 0.84 53 1007.4
20260507013101 12 0 0.0 4.8 0.00 1.07 0.84 53 1007.3
20260507011556 12 0 0.0 4.8 0.00 1.07 0.84 54 1007.1
20260507010050 13 0 0.0 3.2 0.00 1.07 0.84 55 1006.9
20260507004556 13 286 1.6 6.4 0.00 1.12 0.84 56 1006.9
20260507003051 13 0 0.0 4.8 0.00 1.12 0.84 55 1007.0
20260507001552 13 116 1.6 14.5 0.00 1.12 0.84 54 1006.5
20260507000054 13 110 3.2 12.9 0.00 1.12 0.84 52 1006.5
20260506234555 13 102 1.6 19.3 0.00 1.14 0.84 52 1006.2
20260506233052 14 0 1.6 9.7 0.00 1.14 0.84 51 1006.1
20260506231551 15 335 0.0 8.0 0.00 1.14 0.84 49 1005.9
20260506230055 14 314 3.2 12.9 0.00 1.14 0.84 50 1005.5
20260506224603 13 295 0.0 14.5 0.00 1.17 0.84 51 1005.9
20260506223049 14 0 0.0 9.7 0.00 1.17 0.84 50 1006.0
20260506221553 13 0 1.6 24.1 0.00 1.17 0.84 50 1006.3
20260506220052 14 0 0.0 14.5 0.00 1.17 0.84 50 1006.6
20260506214607 14 318 1.6 12.9 0.00 1.22 0.84 49 1006.7
20260506213054 14 92 3.2 16.1 0.00 1.22 0.84 48 1006.4
20260506211551 14 0 9.7 20.9 0.00 1.22 0.84 49 1006.3
20260506210055 15 122 3.2 11.3 0.00 1.22 0.84 47 1006.1
20260506204559 15 91 1.6 9.7 0.00 1.40 0.84 48 1006.0
20260506203052 14 0 3.2 20.9 0.00 1.40 0.84 50 1006.1
20260506201552 13 68 12.9 27.4 0.00 1.40 0.84 51 1006.1
20260506200051 15 104 3.2 17.7 0.00 1.40 0.84 49 1006.1
20260506194604 15 100 0.0 9.7 0.00 1.65 0.84 48 1006.0
20260506193057 15 0 0.0 20.9 0.00 1.65 0.84 49 1005.9
20260506191553 15 125 11.3 17.7 0.00 1.65 0.84 49 1005.5
20260506190052 15 100 9.7 19.3 0.00 1.65 0.84 47 1005.6
20260506184556 15 262 4.8 17.7 0.00 1.65 0.84 47 1005.5
20260506183100 16 143 0.0 16.1 0.00 1.65 0.84 47 1005.5
20260506181555 16 242 0.0 11.3 0.00 1.65 0.84 46 1005.7
20260506180101 15 0 1.6 11.3 0.00 1.65 0.84 47 1005.9
20260506174559 15 0 1.6 11.3 0.00 1.65 0.84 49 1006.1
20260506173100 15 245 0.0 11.3 0.00 1.65 0.84 49 1006.3
20260506171605 15 0 1.6 11.3 0.00 1.65 0.84 50 1006.3
20260506170059 13 0 1.6 9.7 0.00 1.65 0.84 53 1006.4
20260506164600 13 0 0.0 9.7 0.00 1.65 0.84 55 1006.4
20260506163105 13 269 1.6 8.0 0.00 1.65 0.84 55 1006.4
20260506161604 12 0 1.6 12.9 0.00 1.65 0.84 57 1006.6
20260506160058 12 0 0.0 12.9 0.00 1.65 0.84 57 1006.5
20260506154612 12 0 0.0 8.0 0.00 1.65 0.84 60 1006.4
20260506153055 12 0 0.0 9.7 0.00 1.65 0.84 65 1006.2
20260506151555 11 0 1.6 8.0 0.00 1.65 0.84 66 1006.7
20260506150056 11 0 0.0 9.7 0.00 1.65 0.84 66 1006.0